User: anonymous   Login
Location: Silverdale
(47.6506°N, 122.6941°W)
Time: 13:02:48
(UTC+00:00)
Language:

A-11 Canister half - Orbit

View from above orbital plane
View from above orbital plane
View from above satellite
View from above satellite

Ground track
Ground track

The orbit data is extracted from the following two-line orbital elements,

1    53U 60009E   22271.12843007  .00000003  00000-0  86993-3 0  9993
2    53  47.2754 211.0971 0100128  20.9462 339.5387 12.17279838769991
Epoch (UTC): 28 September 2022 03:04:56
Eccentricity: 0.0100128
inclination: 47.2754°
perigee height: 1524 km
apogee height: 1684 km
right ascension of ascending node: 211.0971°
argument of perigee: 20.9462°
revolutions per day: 12.17279838
mean anomaly at epoch: 339.5387°
orbit number at epoch: 76999

The dashed part of the orbit path shows where the satellite is in the earth's shadow,  

DLR